Lapse_Rate
4.5 4.4 4.2 4.1 4.0 3.7 3.5 3.5 3.7 4.1 4.8 5.4 5.4 5.4 5.3 5.3 5.4 5.2 5.4 5.3 4.9 5.4 4.9 5.0 5.3 5.6 5.8 6.0 6.2 6.2 6.3 6.2 6.2 6.2 5.4 4.5 4.1 3.5 3.3 2.8 2.8 3.1 3.1 2.9 3.1 3.0 3.1 3.2 3.1 3.1 3.2 2.9 2.8 2.9
4.3 4.1 3.9 3.6 3.4 3.4 3.5 3.9 4.7 5.4 5.5 5.4 5.5 5.5 5.5 5.3 5.2 4.9 5.9 5.0 4.8 5.8 4.5 4.8 5.0 5.3 5.5 5.7 6.0 6.0 5.9 6.2 6.1 5.9 5.5 4.9 4.4 4.0 3.4 3.5 3.3 3.8 3.5 3.5 3.5 3.8 3.9 4.0 3.8 3.9 3.8 3.7 3.7 3.7
3.9 3.6 3.4 3.2 3.4 3.6 4.5 5.3 5.6 5.6 5.5 5.3 5.1 5.1 5.3 5.3 4.7 4.7 4.7 5.0 5.3 5.1 4.5 5.1 5.0 4.9 5.1 5.4 5.5 5.5 5.5 5.4 5.3 5.6 5.4 4.8 4.7 4.0 4.1 3.8 4.0 4.0 4.1 4.3 4.1 4.3 4.3 4.6 4.3 4.2 4.3 4.2 4.1 4.0
3.4 3.3 3.4 3.6 4.1 5.1 5.6 5.9 5.9 5.8 5.8 5.6 5.4 5.4 5.1 4.8 4.8 4.8 5.4 5.1 5.3 5.5 5.6 4.1 4.6 5.3 4.9 5.2 5.6 5.6 5.8 5.8 5.7 5.7 5.9 5.1 4.6 4.5 4.1 3.9 4.3 4.3 4.5 4.5 4.4 4.3 4.5 4.4 4.6 4.7 4.4 4.1 4.2 4.4
3.5 3.6 3.8 4.6 5.3 5.6 5.8 5.8 5.8 5.8 5.8 5.8 5.6 5.3 5.2 5.3 5.2 5.3 5.4 5.0 5.2 5.9 5.4 4.6 4.8 4.6 4.8 5.0 5.2 5.1 5.3 5.5 6.1 6.4 5.8 5.2 4.8 4.8 4.9 4.8 4.7 4.7 4.9 4.9 4.8 4.9 4.8 4.7 4.8 5.0 5.0 4.8 4.7 4.8
3.7 4.3 5.2 5.5 5.7 5.7 5.7 5.5 5.4 5.4 5.6 5.6 5.5 5.6 5.6 5.5 5.5 5.8 5.8 5.6 5.5 5.8 6.2 5.3 5.0 5.1 5.2 5.3 5.6 5.7 6.0 6.3 6.5 6.7 5.8 5.2 5.3 5.2 5.0 4.7 4.9 5.2 5.4 5.4 5.4 5.4 5.3 5.3 5.2 5.3 5.4 5.2 5.0 4.9
5.1 5.6 5.7 5.7 5.7 5.5 5.3 5.1 5.0 5.2 5.4 5.3 5.1 5.2 5.5 5.3 5.9 6.3 6.0 6.2 6.3 6.4 6.5 5.8 5.7 5.9 6.1 6.3 6.2 6.2 6.2 6.3 6.4 6.2 5.6 5.4 5.5 5.4 5.0 5.0 5.2 5.4 5.5 5.7 5.8 5.8 5.6 5.4 5.6 5.5 5.7 5.6 5.5 5.2
5.6 5.6 5.6 5.5 5.4 5.3 5.3 5.6 5.4 5.1 5.0 5.0 5.0 5.1 5.4 5.9 5.8 5.9 6.2 6.4 6.4 6.7 6.4 6.0 6.2 6.5 6.7 6.8 6.8 6.7 6.6 6.5 6.3 6.1 5.9 5.6 5.6 5.2 5.1 5.3 5.6 5.8 5.7 5.7 5.9 6.1 6.1 6.0 5.9 5.7 5.6 5.7 5.8 5.6
5.7 5.5 5.5 5.5 5.5 5.5 5.5 5.6 5.3 5.0 4.9 5.0 5.2 5.4 6.0 6.1 6.1 5.9 6.1 6.2 6.2 6.7 6.1 6.0 6.6 6.6 6.7 7.0 7.3 7.2 6.9 6.6 6.4 6.1 5.9 5.8 5.5 5.3 5.7 6.2 6.2 6.3 6.4 6.3 6.0 6.1 6.2 6.2 6.2 6.1 6.1 6.0 6.0 5.8
5.6 5.6 5.7 5.6 5.6 5.7 5.6 5.4 5.3 5.1 5.3 5.6 5.8 6.0 5.9 6.1 6.3 6.5 6.7 6.6 6.4 6.2 6.0 6.1 6.4 6.6 6.9 7.1 7.1 7.2 7.0 6.8 6.5 6.1 6.2 5.8 5.5 6.0 6.1 6.2 6.4 6.4 6.4 6.5 6.6 6.6 6.6 6.6 6.6 6.5 6.3 6.2 6.1 6.1
5.6 5.6 5.6 5.7 5.6 5.5 5.4 5.4 5.5 5.5 5.5 5.5 5.7 5.8 5.9 6.4 6.4 5.9 5.6 5.6 5.5 5.5 5.7 6.2 6.5 6.7 6.7 7.0 7.1 7.0 6.8 6.6 6.5 6.5 6.5 6.2 5.9 5.8 6.0 6.1 6.3 6.4 6.4 6.5 6.6 6.6 6.6 6.6 6.7 6.6 6.5 6.3 6.2 6.1
5.9 5.8 5.7 5.6 5.7 5.7 5.7 5.7 5.7 5.7 5.9 5.7 5.6 5.8 6.1 5.8 5.4 5.1 4.8 4.7 5.1 5.3 5.6 6.2 6.6 6.6 6.6 6.7 6.8 6.7 6.8 6.8 6.8 6.6 6.4 6.1 5.8 6.1 6.3 6.3 6.4 6.5 6.6 6.6 6.6 6.7 6.6 6.5 6.6 6.6 6.5 6.5 6.3 6.1
5.8 5.7 5.7 5.5 5.5 5.6 5.7 5.7 5.7 5.6 5.6 5.9 5.8 5.6 5.5 5.1 4.6 4.1 4.2 4.6 5.3 5.4 5.4 5.7 6.4 6.5 6.6 6.4 6.4 6.4 6.5 6.6 6.6 6.5 6.4 6.1 6.0 6.1 6.1 6.4 6.5 6.4 6.6 6.7 6.8 6.8 6.7 6.6 6.4 6.5 6.6 6.4 6.4 6.2
5.7 5.6 5.6 5.6 5.7 5.7 5.6 5.7 5.9 5.9 5.5 5.7 5.6 5.1 4.5 4.1 3.9 4.1 4.6 5.1 5.4 5.8 5.8 5.9 6.4 6.2 6.2 6.2 6.1 6.1 6.3 6.2 6.4 6.3 6.1 6.0 6.1 6.3 6.3 6.3 6.5 6.7 6.6 6.6 6.8 6.8 6.8 6.7 6.6 6.4 6.5 6.5 6.5 6.3
5.6 5.8 5.9 5.8 5.8 5.8 5.9 5.9 6.0 5.6 5.9 5.8 5.0 4.2 3.9 4.0 4.3 4.5 4.8 5.1 5.5 5.7 6.0 6.2 6.1 5.8 5.9 6.0 6.1 6.0 6.2 6.3 6.4 5.9 5.9 6.0 6.1 6.2 6.3 6.4 6.4 6.5 6.6 6.6 6.6 6.7 6.8 6.8 6.7 6.6 6.5 6.6 6.5 6.4
5.7 5.6 5.6 5.6 5.7 5.8 5.5 5.2 5.6 6.2 6.1 4.9 4.1 3.9 4.0 4.2 4.3 4.6 4.8 5.0 5.1 5.5 5.9 5.6 5.2 5.1 5.3 5.5 5.8 6.0 5.7 5.9 5.7 5.6 6.2 6.2 6.0 6.1 6.2 6.3 6.4 6.4 6.5 6.6 6.6 6.6 6.6 6.7 6.7 6.7 6.6 6.6 6.5 6.5
6.1 6.0 5.9 5.7 5.8 5.6 5.3 5.8 6.2 6.0 4.7 4.0 3.8 4.0 4.1 4.3 4.4 4.5 4.6 4.6 4.9 5.1 5.2 5.2 5.0 5.2 5.3 5.5 5.2 5.5 5.6 5.7 5.6 6.5 6.2 6.3 6.2 6.2 6.2 6.3 6.4 6.4 6.4 6.4 6.6 6.6 6.6 6.7 6.7 6.7 6.7 6.6 6.6 6.6
6.1 6.0 6.0 5.9 5.6 5.5 5.7 6.0 5.5 4.4 4.1 4.0 4.1 4.1 4.1 4.2 4.3 4.4 4.4 4.6 5.0 5.4 5.4 5.1 5.1 4.9 4.8 4.8 5.2 5.7 6.0 6.4 6.4 6.3 6.0 6.2 6.2 6.0 6.1 6.1 6.4 6.4 6.4 6.4 6.4 6.5 6.5 6.6 6.6 6.6 6.7 6.7 6.6 6.7
6.2 6.1 6.1 6.0 5.8 5.9 5.9 5.1 4.8 4.1 4.1 4.2 4.1 4.2 4.2 4.4 4.5 4.6 4.7 4.8 5.2 5.5 5.5 4.7 4.9 4.8 5.1 5.4 5.9 6.4 6.5 6.7 7.0 7.0 6.4 6.3 6.2 6.1 6.2 6.3 6.2 6.4 6.3 6.4 6.4 6.4 6.4 6.4 6.5 6.4 6.5 6.5 6.5 6.4
6.3 6.3 6.2 6.2 6.2 6.2 5.4 4.9 4.7 4.2 4.3 4.3 4.3 4.3 4.5 4.7 4.9 4.9 4.9 5.1 5.4 5.6 4.9 5.0 5.2 5.4 5.7 6.0 6.2 6.3 6.2 6.2 6.4 7.0 7.2 6.9 6.6 6.5 6.3 6.5 6.5 6.5 6.7 6.7 6.4 6.3 6.4 6.4 6.3 6.3 6.2 6.2 6.3 6.3
6.6 6.5 6.3 6.2 6.4 6.2 5.5 5.2 4.9 4.9 4.7 4.8 4.9 5.0 5.0 5.1 5.0 5.0 4.9 4.8 5.0 4.9 5.0 5.6 6.1 6.1 6.0 5.9 5.7 5.9 6.0 5.8 5.8 5.7 6.0 6.6 6.6 6.5 6.6 6.5 6.4 6.3 6.6 6.6 6.6 6.4 6.2 6.3 6.3 6.3 6.3 6.2 6.2 6.2
6.8 6.6 6.3 6.5 6.4 5.7 5.4 5.3 5.2 5.1 5.1 5.2 5.1 5.1 5.0 4.9 4.9 4.9 5.0 4.8 4.9 5.0 5.3 5.8 5.9 5.8 5.8 5.8 5.9 6.1 6.2 6.1 6.1 6.1 6.1 6.3 6.5 6.7 6.7 6.6 6.7 6.7 6.5 6.5 6.7 6.7 6.4 6.3 6.3 6.3 6.3 6.3 6.3 6.3
6.8 6.6 6.8 6.3 5.8 5.5 5.5 5.4 5.4 5.3 5.3 5.2 5.1 5.1 5.0 5.0 5.1 5.1 4.9 4.9 5.0 5.1 5.4 5.7 6.1 5.8 5.6 5.9 6.0 6.1 6.3 6.3 6.5 6.8 6.9 6.8 6.7 6.7 6.7 6.7 6.9 7.0 6.9 6.7 6.7 6.8 6.8 6.7 6.6 6.5 6.4 6.4 6.3 6.3
7.0 6.9 6.3 5.8 5.6 5.5 5.4 5.3 5.2 5.2 5.2 5.3 5.2 5.1 5.1 5.1 5.0 5.1 5.0 4.9 4.9 5.0 5.4 5.5 5.7 6.2 6.3 6.2 6.1 6.3 6.5 6.6 6.7 6.9 7.1 7.4 7.5 7.5 7.3 7.2 7.2 7.2 7.1 7.1 7.1 7.1 7.0 7.0 6.9 6.8 6.7 6.5 6.4 6.5
6.7 6.2 5.8 5.6 5.6 5.5 5.3 5.1 5.1 5.0 4.9 5.0 5.0 4.9 5.0 5.0 4.9 4.8 4.6 4.7 4.6 4.6 5.1 5.3 5.5 5.6 6.0 6.2 6.2 6.2 6.2 6.4 6.7 7.0 7.2 7.3 7.6 7.7 7.7 7.5 7.3 7.4 7.4 7.5 7.5 7.4 7.2 7.1 7.1 6.9 6.8 6.7 6.6 6.6
6.2 5.9 5.6 5.6 5.6 5.3 5.0 4.8 4.9 5.0 5.1 4.9 4.7 4.5 4.6 4.6 4.4 4.5 4.6 4.6 4.4 4.6 4.8 5.0 5.2 5.6 5.7 5.7 6.2 6.4 6.5 6.6 6.9 7.0 7.1 7.2 7.3 7.4 7.5 7.5 7.5 7.4 7.2 7.3 7.4 7.3 7.2 7.1 7.0 6.9 6.8 6.7 6.6 6.6
5.4 5.4 5.3 5.4 5.4 5.3 5.1 5.3 5.4 5.1 4.7 4.5 4.5 4.4 4.4 4.3 4.3 4.3 4.5 4.5 4.6 5.0 5.2 5.2 4.6 4.9 5.7 6.0 6.2 6.5 6.8 7.0 7.0 7.0 7.1 7.2 7.3 7.3 7.3 7.3 7.4 7.4 7.3 7.1 7.0 7.0 7.0 6.8 6.7 6.7 6.7 6.7 6.6 6.5
5.4 5.5 5.6 5.6 5.5 5.5 5.4 5.3 5.0 4.5 4.5 4.7 4.8 4.7 4.3 4.0 4.0 4.3 4.3 4.6 5.0 5.3 5.3 5.1 4.9 5.2 5.4 5.9 6.4 6.8 7.1 7.3 7.4 7.3 7.3 7.4 7.3 7.4 7.3 7.3 7.2 7.0 6.9 6.9 6.8 6.6 6.5 6.5 6.4 6.3 6.3 6.4 6.4 6.4
5.5 5.5 5.5 5.6 5.6 5.4 5.2 5.0 4.8 4.6 4.5 4.7 4.7 4.4 4.1 3.9 3.9 4.1 4.4 4.7 4.7 4.9 5.3 5.5 5.6 5.9 6.1 6.1 6.2 6.6 7.0 7.3 7.5 7.7 7.6 7.6 7.7 7.5 7.3 7.2 7.1 6.9 6.7 6.5 6.3 6.2 6.1 6.1 6.1 6.2 6.3 6.4 6.4 6.4
5.7 5.5 5.4 5.5 5.4 5.0 5.1 5.1 4.8 4.6 4.5 4.5 4.1 3.8 3.6 3.7 3.8 4.1 4.2 4.4 4.6 4.7 4.7 4.8 5.1 5.4 5.9 6.4 6.8 6.8 6.9 7.0 7.0 7.1 7.3 7.4 7.2 7.2 7.1 7.0 6.7 6.4 6.2 6.2 6.2 6.1 6.1 6.3 6.4 6.5 6.4 6.5 6.6 6.5
5.6 5.7 5.6 5.4 5.4 5.3 5.2 5.1 4.7 4.5 4.3 4.2 4.0 3.8 3.7 3.7 3.7 4.0 4.2 4.3 4.3 4.4 4.8 5.1 5.0 5.3 5.8 6.3 6.6 7.0 7.1 7.1 7.0 7.2 7.3 7.1 7.0 6.9 6.7 6.5 6.2 6.1 6.1 6.1 6.0 6.1 6.3 6.4 6.4 6.4 6.6 6.4 6.2 6.0
5.8 5.8 5.6 5.5 5.2 5.0 5.0 4.9 4.8 4.5 4.4 4.4 4.2 3.9 3.8 3.8 3.8 3.7 3.8 4.0 4.1 4.4 4.4 4.7 5.0 5.6 5.9 6.2 6.6 6.8 6.9 7.0 7.2 7.3 7.1 6.9 6.7 6.6 6.4 6.2 6.0 6.0 6.0 6.0 6.0 6.2 6.3 6.4 6.4 6.4 6.2 6.0 5.8 5.7
5.8 5.7 5.7 5.6 5.3 5.1 4.9 4.9 4.8 4.7 4.7 4.5 4.1 3.7 3.6 3.3 3.1 3.3 3.4 3.7 3.9 4.3 4.6 4.9 5.3 5.7 6.0 6.5 6.8 7.0 7.2 7.2 7.1 7.0 6.8 6.6 6.4 6.3 6.2 6.0 6.0 5.9 5.9 6.0 6.1 6.3 6.5 6.5 6.4 6.1 5.7 5.5 5.3 5.2
Wind_Speed
17 17 17 18 20 20 21 20 16 22 25 26 32 34 34 30 29 9 4 14 4 5 1 2 3 4 4 3 3 5 3 5 6 5 3 3 4 3 4 3 3 4 4 4 3 3 1 6 2 1 3 3 5 5
15 17 18 19 21 22 22 18 16 22 28 29 28 26 26 27 29 23 9 15 9 6 5 5 5 4 5 5 2 5 3 2 3 3 3 3 4 3 3 2 5 3 1 1 2 3 4 3 5 4 3 4 5 2
14 16 17 17 17 21 26 21 15 13 15 22 28 30 27 21 19 11 3 0 3 4 4 5 5 7 10 0 3 2 3 2 4 2 3 2 7 3 3 2 1 7 2 2 4 4 4 4 3 3 4 5 6 7
13 14 15 13 12 11 15 23 26 19 10 8 12 19 25 28 29 23 4 4 4 4 4 5 2 5 11 8 7 2 2 3 3 3 4 4 4 3 1 3 3 3 4 1 4 5 5 4 3 3 6 8 7 7
10 10 11 10 10 9 8 10 12 19 21 12 6 5 6 9 16 20 13 13 7 5 4 3 4 5 9 10 14 13 12 6 4 4 4 2 2 3 2 2 2 2 4 2 4 6 5 7 5 4 5 8 6 10
8 8 10 10 11 11 7 6 7 11 19 26 17 9 2 2 3 2 4 6 19 2 4 3 2 7 10 11 14 11 7 5 3 3 1 1 2 3 3 1 5 5 3 6 5 4 7 8 7 5 4 7 10 10
8 10 12 12 13 12 10 4 2 5 7 11 20 25 29 25 14 5 3 4 17 2 3 3 3 5 6 4 4 4 5 2 3 2 3 2 3 3 3 0 6 6 7 5 4 1 5 2 5 5 6 13 12 7
8 9 9 10 11 11 10 2 1 1 2 3 5 6 9 13 12 4 10 15 8 5 5 3 4 4 9 4 4 4 4 3 6 2 1 2 2 2 2 7 6 5 6 6 8 8 8 6 8 9 6 4 8 8
9 9 9 10 11 12 11 2 2 2 2 2 1 2 5 4 3 1 6 11 17 5 4 3 2 4 7 3 1 3 2 3 1 3 2 1 2 2 6 7 5 5 4 7 5 6 8 7 10 10 8 8 6 10
12 12 10 9 11 14 11 2 2 2 1 1 3 2 3 3 9 2 5 4 6 5 5 3 1 3 3 4 3 3 2 2 2 2 1 3 3 4 6 7 7 8 8 4 3 7 4 7 9 9 8 9 8 10
14 15 13 10 11 15 13 5 4 4 5 2 2 2 2 8 3 4 4 5 4 5 3 1 2 2 1 2 2 2 1 1 3 3 2 3 3 4 6 7 8 7 7 8 7 8 8 9 9 10 11 11 10 11
17 16 18 15 11 11 15 12 7 5 1 2 4 4 3 5 5 8 3 4 6 1 3 2 3 2 3 1 2 2 1 3 1 1 3 3 3 5 5 8 8 7 7 9 7 10 11 10 9 9 9 10 10 10
13 18 17 15 16 12 10 11 12 10 4 3 4 5 4 5 10 7 7 5 5 3 2 3 4 2 3 1 1 3 5 2 1 3 2 3 4 6 9 7 8 7 7 7 9 9 10 10 9 8 9 9 9 9
6 7 18 19 15 10 12 9 7 7 4 4 5 8 4 5 0 4 4 3 4 2 3 1 2 1 2 3 0 3 2 2 4 4 3 3 5 8 7 4 3 6 7 8 10 9 9 9 9 8 8 8 7 9
4 11 7 26 20 13 10 12 10 8 3 4 5 4 2 2 3 3 2 2 3 1 1 2 2 1 2 2 1 2 6 4 3 3 3 5 9 8 8 6 7 8 7 7 7 7 9 8 8 10 8 7 7 9
4 4 12 21 14 15 7 7 8 3 4 4 6 4 1 2 3 2 0 3 1 1 0 0 1 3 3 0 4 1 2 4 5 4 10 10 11 10 8 6 7 7 7 8 7 8 8 8 9 8 8 7 8 8
8 4 19 18 10 6 15 4 3 6 5 5 1 1 2 1 3 2 2 2 0 1 2 1 4 3 3 3 3 3 2 8 13 13 11 13 11 12 12 9 8 7 8 8 8 8 9 8 6 6 9 9 7 8
3 10 15 13 3 5 3 5 4 5 5 1 2 2 2 1 1 2 2 1 1 1 1 1 1 3 1 2 4 7 11 10 10 11 11 12 13 12 8 9 10 9 9 9 9 9 8 7 7 7 9 9 7 8
3 11 14 11 6 4 4 5 4 4 3 1 2 1 1 1 2 1 1 1 0 1 2 2 2 1 2 3 9 11 11 9 11 12 12 14 11 10 10 9 9 10 9 9 8 7 6 8 8 7 6 5 6 6
4 13 10 15 6 3 5 3 2 4 1 1 1 2 0 1 2 1 1 2 1 2 3 2 2 5 6 9 9 9 9 9 9 10 11 10 9 11 10 9 8 9 8 9 7 12 6 6 6 6 6 6 6 7
3 7 10 6 4 6 4 1 4 1 1 2 1 1 1 1 2 2 2 2 3 2 3 2 8 9 10 8 7 7 8 7 8 7 10 11 10 9 9 8 8 6 6 7 7 8 9 6 7 6 6 7 7 8
3 7 3 7 4 4 5 2 3 1 2 1 2 1 2 2 2 2 2 2 0 2 2 5 7 9 10 11 11 10 10 11 10 8 13 12 8 9 9 9 8 8 8 8 7 8 8 8 6 7 7 8 10 8
5 4 4 5 6 6 2 1 3 5 2 3 2 3 3 2 1 2 2 1 2 3 6 7 8 9 9 11 10 9 9 10 8 8 8 8 8 8 8 8 7 7 9 8 6 7 8 15 12 10 8 9 8 8
8 5 5 4 4 0 2 4 2 3 3 4 3 3 4 2 4 3 2 2 3 8 10 13 9 10 9 10 9 10 10 9 9 9 8 8 8 8 7 8 8 7 7 8 7 8 8 9 15 9 9 10 11 10
6 8 5 6 3 5 6 6 6 5 3 3 3 4 3 3 3 3 1 3 6 8 10 10 9 8 8 8 9 9 11 9 10 11 10 8 8 9 9 8 8 8 8 7 10 11 11 10 10 10 11 11 13 15
7 5 5 1 3 4 1 4 4 3 2 4 2 2 2 2 4 2 2 2 3 6 10 8 9 8 8 9 10 10 11 10 9 9 10 9 9 8 11 13 13 12 11 10 11 13 14 13 13 15 13 16 22 17
5 4 3 0 1 2 2 1 1 3 4 3 3 4 3 4 2 3 2 2 3 7 7 7 7 7 8 9 9 9 8 8 7 9 10 9 6 6 5 10 15 12 13 14 13 13 15 15 15 14 14 12 11 11
3 2 2 4 3 1 3 2 3 2 2 2 1 4 2 3 2 2 2 3 4 7 6 6 6 6 7 8 8 8 9 9 9 9 9 3 4 4 10 7 9 24 13 13 14 13 13 14 14 14 14 13 12 12
2 2 0 4 3 4 2 2 2 2 1 1 1 2 2 2 2 2 2 2 5 5 8 9 9 7 7 7 6 7 8 8 16 23 22 14 13 12 11 10 10 9 9 10 20 19 19 15 14 12 11 10 9 9
3 1 3 2 3 3 3 3 2 2 1 1 1 3 2 3 3 1 2 3 4 7 8 7 7 7 9 10 10 12 8 6 8 9 11 13 13 13 11 11 11 10 10 10 10 11 19 13 12 9 11 10 9 9
1 2 3 2 1 2 2 1 2 2 1 1 1 2 3 3 4 2 2 2 2 6 9 11 10 8 8 10 11 12 12 10 10 9 9 9 10 11 9 10 9 8 9 10 10 9 10 11 10 11 12 13 15 14
2 2 2 1 3 2 2 2 1 1 2 1 2 2 3 2 3 2 2 0 4 9 15 12 10 11 10 7 7 4 18 9 10 10 12 10 10 9 9 13 14 9 9 9 9 8 9 10 10 11 12 14 14 14
2 2 2 2 4 4 3 4 3 4 2 2 2 2 2 2 2 3 2 4 2 3 7 9 9 8 11 10 8 7 18 15 21 25 26 28 29 28 19 16 15 9 11 8 9 9 9 12 11 13 14 13 14 14
Wind_Direction
71 60 49 44 44 37 30 30 42 31 41 44 49 52 53 58 65 64 53 30 93 102 308 358 326 6 325 10 359 303 336 359 359 57 71 50 59 60 86 19 17 33 347 21 5 85 68 350 321 8 224 286 282 297
72 59 51 50 51 44 39 57 67 57 53 52 48 46 55 60 64 66 73 53 45 78 189 206 218 194 188 234 212 321 131 314 350 82 63 94 71 56 15 42 353 38 118 236 95 216 223 247 181 192 167 239 285 276
73 58 51 52 60 57 57 61 65 58 58 55 54 53 57 62 63 73 107 338 53 76 42 44 355 322 356 305 190 76 339 300 18 184 125 117 77 72 72 317 18 340 1 90 42 298 257 263 286 182 207 228 262 265
68 54 47 46 57 65 59 60 56 51 46 36 47 63 66 66 69 71 66 343 79 105 88 321 329 4 328 358 40 164 152 47 82 48 76 77 95 27 73 164 106 217 358 336 273 290 310 341 241 224 273 305 273 266
62 47 38 36 40 49 50 45 43 47 51 59 63 73 75 86 86 76 70 45 58 108 148 242 306 338 0 8 30 33 44 43 25 39 48 61 87 80 3 82 351 190 205 115 245 223 185 250 254 282 282 291 274 289
49 30 18 21 25 26 33 44 52 59 55 60 65 70 96 67 43 70 43 27 24 56 94 47 264 353 350 4 21 21 24 46 67 89 139 8 255 94 86 129 255 239 243 189 249 195 211 262 276 248 239 267 285 285
29 14 13 15 15 12 8 5 34 53 61 72 70 68 72 78 77 72 153 278 333 51 79 38 357 12 340 1 14 0 20 42 80 120 49 104 11 59 86 75 259 250 236 253 245 47 301 226 255 266 241 277 284 275
21 13 14 16 12 7 6 20 338 283 39 42 66 75 77 83 87 55 21 28 63 88 48 62 321 15 5 356 347 5 2 20 20 143 21 44 338 60 35 251 272 265 282 279 257 209 242 284 291 272 249 272 288 278
23 18 18 13 8 4 1 48 177 209 218 232 14 335 8 25 43 297 89 56 53 70 96 68 47 296 359 4 333 334 7 49 264 55 8 24 312 45 256 279 272 250 205 253 282 256 263 247 273 284 283 289 263 286
32 26 20 17 17 11 8 58 141 134 102 42 31 24 15 342 315 44 11 23 24 14 35 82 176 294 1 351 332 338 12 45 51 285 336 62 259 271 261 239 250 267 247 167 302 293 271 270 279 283 268 267 255 276
40 35 32 31 30 29 33 61 130 110 74 45 51 88 254 339 20 33 45 42 347 30 18 323 149 294 350 5 316 42 265 337 58 281 93 326 302 248 254 260 261 256 250 238 220 248 250 255 269 279 287 283 281 282
48 47 43 41 36 33 39 60 92 71 120 118 122 88 39 22 36 62 6 355 43 341 329 358 304 246 304 126 30 333 76 31 281 306 65 334 250 253 271 268 271 262 258 262 242 256 264 263 258 261 269 276 278 279
54 49 46 44 45 47 46 53 74 112 124 54 50 48 35 329 36 51 346 321 341 338 338 340 323 329 324 347 347 28 45 257 325 34 265 239 279 287 283 268 265 261 258 253 264 257 260 264 263 255 272 274 276 280
56 55 43 41 39 51 44 44 69 80 72 62 56 29 70 359 264 190 200 221 258 231 316 317 265 319 308 348 253 45 232 57 26 19 264 253 267 297 300 252 243 268 260 259 264 268 264 265 271 265 258 264 268 274
73 48 46 20 21 29 57 64 60 52 68 74 58 62 55 235 253 238 261 317 258 249 344 329 307 66 303 340 49 333 6 337 204 250 248 288 291 296 300 296 261 267 271 264 263 265 270 269 267 274 266 257 253 264
22 24 26 359 7 24 32 54 40 72 53 72 55 75 308 48 294 338 260 271 285 334 333 174 349 22 347 172 16 204 111 254 291 259 303 313 307 302 296 285 284 269 265 268 265 262 268 268 263 268 279 264 261 252
54 27 339 346 357 37 35 69 52 45 89 57 348 348 116 127 212 232 191 255 288 349 5 12 24 259 304 332 326 197 237 313 314 307 308 305 299 298 301 295 285 271 273 268 266 263 259 262 262 266 271 275 255 251
56 337 349 355 26 53 39 31 76 67 54 255 98 237 211 186 176 281 256 284 37 351 18 6 71 13 299 286 290 307 307 305 307 305 304 309 309 302 294 287 292 286 283 281 272 270 269 264 266 265 264 267 270 267
76 18 16 22 60 88 59 22 40 99 214 221 272 12 120 259 254 235 281 333 95 102 96 42 35 268 292 275 303 307 310 314 312 311 306 308 303 298 299 294 289 287 282 278 279 275 273 261 256 264 261 257 259 269
138 29 19 33 55 77 59 11 34 93 149 250 56 23 145 232 304 7 48 18 2 71 27 21 287 295 296 305 314 306 307 314 313 310 310 316 322 315 307 303 301 299 295 290 276 286 284 270 259 252 251 248 249 260
46 359 14 52 45 62 84 4 43 131 194 90 267 67 275 359 39 17 351 356 45 86 331 259 307 302 305 306 313 316 307 315 310 302 303 312 323 323 314 310 306 302 291 295 292 294 305 277 281 279 264 266 262 263
318 356 57 29 73 37 77 323 126 224 84 210 37 34 38 42 359 331 316 29 107 264 252 300 304 311 313 319 316 313 306 302 303 305 321 323 322 327 325 320 321 315 311 304 299 298 298 295 291 274 263 267 275 272
13 36 41 31 69 42 290 37 62 356 71 299 20 45 356 353 242 324 67 220 265 270 320 320 315 309 309 312 315 318 322 322 326 330 326 323 316 311 319 318 312 307 314 310 304 298 296 300 305 306 288 290 284 281
39 48 48 49 46 171 357 14 25 28 29 28 31 2 347 318 327 38 74 298 290 333 343 341 333 330 335 340 344 340 340 338 334 331 332 329 328 326 318 308 307 306 293 290 298 299 300 297 305 303 293 292 291 288
65 350 44 356 351 33 28 6 346 32 22 343 20 358 348 349 45 48 349 307 342 338 332 336 337 338 325 324 330 334 341 343 337 331 332 336 325 322 325 324 319 313 310 303 314 315 311 311 309 305 302 299 295 294
65 323 51 253 310 54 357 15 4 353 13 0 337 282 357 41 55 338 276 272 302 332 336 332 324 324 333 340 334 336 334 334 330 331 327 332 326 322 326 332 334 333 335 320 315 318 317 315 315 312 307 303 307 312
53 340 336 55 128 125 52 12 42 88 44 11 319 342 25 61 352 276 304 263 315 327 317 310 315 324 326 328 326 325 326 329 327 318 312 314 310 311 314 324 332 328 339 338 329 331 331 327 320 321 322 326 331 335
139 31 7 314 32 10 125 54 42 29 287 273 284 14 96 159 227 272 250 284 305 313 313 320 315 327 322 316 316 318 327 331 333 334 327 307 316 310 340 338 336 339 337 337 343 345 340 341 346 342 348 344 340 341
41 328 121 9 355 36 67 103 242 241 234 169 171 284 285 256 265 267 298 325 308 309 337 340 343 342 330 332 329 335 336 341 352 353 352 343 340 346 344 347 338 336 343 340 342 349 349 354 350 356 352 340 337 341
330 349 72 23 62 5 260 190 253 268 241 247 296 308 279 262 259 355 284 304 332 341 332 320 324 338 336 341 339 345 347 350 6 354 333 330 326 323 333 342 337 337 342 341 334 338 347 352 343 347 350 347 345 351
343 36 58 43 198 245 242 289 322 310 344 311 251 207 262 303 304 239 226 256 300 336 343 344 346 345 339 340 341 339 340 349 348 336 324 320 320 324 330 334 326 327 334 340 334 336 343 346 347 343 341 342 340 347
12 80 118 14 302 316 27 14 275 295 309 4 274 229 293 313 296 287 241 305 14 0 347 341 336 331 327 319 311 295 335 327 336 333 331 331 331 328 328 333 326 324 330 324 332 332 338 344 338 340 341 340 338 336
51 62 36 30 3 358 334 11 6 340 343 322 288 224 227 197 267 285 281 220 221 331 335 335 324 318 311 307 312 329 339 326 334 343 342 344 342 345 349 340 334 334 334 325 330 332 330 338 338 339 338 335 335 330